Location: Macksville High School
(37.9611°N, 99.9654°W)
Time: 00:20:39
(UTC+00:00)

H-2A R/B - Pass Details

Date: 17 January 2021
Orbit: 528 x 652 km, 98.3° (Epoch: 07 March)

Event Time Altitude Azimuth Distance (km) Brightness Sun altitude
Rises 13:18:14 0° 6° (N) 2,939 5.9 -7.3°
Reaches altitude 10° 13:20:29 10° 1° (N) 2,039 5.0 -6.8°
Maximum altitude 13:24:46 48° 287° (WNW) 854 2.9 -6.1°
Drops below altitude 10° 13:29:04 10° 214° (SW) 2,051 5.1 -5.3°
Sets 13:31:20 0° 208° (SSW) 2,957 6.0 -4.9°
